JO-97
1 43803U 18099AX  24350.42242176  .00017900  00000-0  97936-3 0  9991
2 43803  97.4958  45.6097 0009472  45.9737 314.2274 15.14274990330056
Suomi 100
1 43804U 18099AY  24349.61127002  .00012436  00000-0  71087-3 0  9999
2 43804  97.5033  44.4824 0014871  46.5319 313.7146 15.12732419329894
ISAT
1 43879U 18111D   24350.70826973  .00024812  00000-0  11595-2 0  9999
2 43879  97.6070 256.4413 0013591  89.6709 270.6083 15.19702591324875
UWE-4
1 43880U 18111E   24349.48064846  .00017485  00000-0  87028-3 0  9990
2 43880  97.6007 254.6551 0016568 103.3545 256.9536 15.17543933324690
Sparrow
1 43881U 18111F   24350.01411081  .00024930  00000-0  11413-2 0  9996
2 43881  97.6191 258.0484 0010279 122.3408 237.8823 15.20445909324864
Prox-1
1 44339U 19036A   24350.49944163  .00019112  00000-0  28199-2 0  9991
2 44339  23.9969 133.2010 0006725 229.7031 130.2877 14.73749564292042
SONATE
1 44400U 19038Q   24349.59849062  .00046807  00000-0  81772-3 0  9991
2 44400  97.7115 353.7033 0011846 164.8284 195.3324 15.50457025301860
Taurus 1
1 44530U 19059C   24350.77006480  .00013050  00000-0  26577-2 0  9994
2 44530  98.5898 116.6480 0010759 216.5067 143.5400 14.61112167278228
Duchifat 3
1 44854U 19089C   24350.42930152  .00037052  00000-0  12914-2 0  9998
2 44854  36.9513  19.7130 0011607 181.6290 178.4424 15.28688241275826
TO-108
1 44881U 19093C   24350.79311592  .00002099  00000-0  25289-3 0  9997
2 44881  97.8132  64.0401 0015407  88.5905 271.7074 14.84836641269981
FloripaSat 1
1 44885U 19093G   24350.79733229  .00010255  00000-0  94634-3 0  9999
2 44885  97.8312  72.4177 0012499  75.1791 285.0812 14.94773718270459
RS-44
1 44909U 19096E   24349.70967640  .00000020  00000-0  39560-4 0  9991
2 44909  82.5215 344.8167 0217296 349.4537  10.2043 12.79736933232115
UPMSat 2
1 46276U 20061E   24350.45054496  .00041369  00000-0  81937-3 0  9999
2 46276  97.2736  55.7819 0001246 148.3320 211.8005 15.46953989238065
AmicalSat
1 46287U 20061R   24350.00271805  .00332336  00000-0  17872-2 0  9990
2 46287  97.3168  60.7822 0003028 276.1106  83.9817 15.79320402237599
SALSAT
1 46495U 20068K   24349.14347125  .00009994  00000-0  49115-3 0  9997
2 46495  97.8395 313.8156 0014722  60.0172 300.2520 15.18164703231565
CubeSX-Sirius-HSE
1 47951U 21022V   24350.79630096  .00059694  00000-0  13396-2 0  9994
2 47951  97.4408 250.3707 0007728 191.7625 168.3443 15.43155191206393
CubeSX-HSE
1 47952U 21022W   24350.79013710  .00056893  00000-0  12627-2 0  9997
2 47952  97.4403 250.5139 0007827 190.4473 169.6613 15.43497350206408
KSU-Cubesat
1 47954U 21022Y   24348.69354513  .00082874  00000-0  13283-2 0  9991
2 47954  97.4413 251.1123 0006320 173.2831 186.8507 15.52782172205978
GRBAlpha
1 47959U 21022AD  24350.81330065  .00060166  00000-0  13357-2 0  9991
2 47959  97.4403 250.7054 0007702 190.1212 169.9882 15.43475018205231
Orbicraft-Zorkiy
1 47960U 21022AE  24350.80438618  .00078920  00000-0  14259-2 0  9994
2 47960  97.4436 253.0059 0006526 176.5121 183.6177 15.49415072206040
TUBIN
1 48900U 21059X   24350.74885001  .00035686  00000-0  82015-3 0  9992
2 48900  97.6617 142.4246 0005336 160.0591 200.0865 15.42581424192785
LEDSAT
1 49069U 21073D   24350.61724565  .00041321  00000-0  10866-2 0  9995
2 49069  97.4163  61.8350 0014385   1.2543 358.8735 15.38359966184208
CUTE
1 49263U 21088D   24350.44924328  .00050519  00000-0  14923-2 0  9994
2 49263  97.4757  56.6854 0011241 158.1010 202.0716 15.34725892177283
TeikyoSat 4
1 49396U 21102B   24350.06329466  .00004580  00000-0  31579-3 0  9992
2 49396  97.4365  28.7596 0013448  24.4784 335.7079 15.06226371169961
Z-Sat
1 49399U 21102E   24350.78571146  .00007387  00000-0  43518-3 0  9992
2 49399  97.4074  31.6086 0018956 358.0535   2.0619 15.11736183170393
KOSEN 1
1 49402U 21102H   24350.58418286  .00010529  00000-0  54623-3 0  9991
2 49402  97.3992  33.6640 0016524 338.7194  21.3350 15.16204824170583
HO-113
1 50466U 21131B   24350.83122929  .00001318  00000-0  42939-3 0  9992
2 50466  98.5208  75.0591 0003253 311.8893  48.2017 14.40350281156145
IRIS-A
1 51044U 22002BN  24350.45183415  .00063170  00000-0  11779-2 0  9999
2 51044  97.3601  57.9315 0004789 103.6294 256.5491 15.48587303162291
Foresail-1
1 52766U 22057AL  24350.09082487  .00058024  00000-0  10776-2 0  9996
2 52766  97.5970 121.9935 0007197 207.2809 152.8064 15.48709888142277
SNUGLITE 2
1 52899U 22065F   24350.82989115  .00002571  00000-0  51921-3 0  9991
2 52899  98.1427 128.9165 0006687 309.4292  50.6317 14.62232365130790
IO-117
1 53106U 22080B   24346.40082951 -.00000003  00000-0  00000+0 0  9998
2 53106  70.1337 130.9545 0008301  67.0662 293.0873  6.42557702 56656
FO-118
1 54684U 22167C   24350.80151992  .00123707  00000-0  16444-2 0  9995
2 54684  97.6138 143.0940 0007173 231.8218 128.2391 15.57744691112264
SSS-2B
1 56184U 23054G   24350.77468994  .00934477  43512-3  16996-2 0  9991
2 56184  97.3311 254.5379 0007384 120.5131 239.6878 16.01496117 94406
SO-120
1 56992U 23084BU  24350.80822380  .00161838  00000-0  19283-2 0  9995
2 56992  97.5361 115.5458 0003054  85.0242 275.1364 15.60542748 84132
MRC-100
1 56993U 23084BV  24350.10981624  .00453473  00000-0  24142-2 0  9995
2 56993  97.5308 116.8153 0003223 317.9401  42.1618 15.79225609 84163
UmKA 1 (RS40S)
1 57172U 23091G   24350.83533941  .00010345  00000-0  60817-3 0  9995
2 57172  97.5869  41.2868 0014706 216.4899 143.5330 15.11777008 80895
CubeBel-2 (EU11S)
1 57175U 23091K   24350.82462040  .00014363  00000-0  79313-3 0  9993
2 57175  97.5872  41.5964 0012652 227.4215 132.5950 15.13968276 80914
VERONIKA
1 58261U 23174F   24350.76864216  .00051507  00000-0  14212-2 0  9993
2 58261  97.4409  65.4213 0008518 320.9656  39.0973 15.36885824 61436
KAFASAT
1 58317U 23174BP  24350.11416259  .00094949  00000-0  18422-2 0  9998
2 58317  97.4334  66.7552 0007518 290.6436  69.4007 15.47292365 61487
ENSO
1 58470U 23185J   24350.45438611  .00039556  00000-0  11200-2 0  9993
2 58470  97.4030  56.4698 0009617   1.1758 358.9507 15.36132461 57834
EIRSAT-1
1 58472U 23185L   24350.47054303  .00049144  00000-0  12823-2 0  9995
2 58472  97.4023  56.8691 0008895 359.7162   0.4076 15.38624147 57865
SONATE-2
1 59112U 24043Q   24350.14336998  .00020542  00000-0  77872-3 0  9995
2 59112  97.4957 113.2136 0013075  23.7249 336.4590 15.26832668 43331
MO-122
1 60209U 24125G   24348.81108909  .00019461  00000-0  73284-3 0  9996
2 60209  97.2978 197.3091 0024530  53.3745 306.9745 15.26853695 24743
GRBBeta
1 60237U 24128C   24349.70698807  .00007951  00000-0  64839-3 0  9997
2 60237  61.9937 335.0008 0031394  13.6143 346.5786 14.99801383 23642
Curium One
1 60242U 24128H   24350.66699507  .00013004  00000-0  10308-2 0  9995
2 60242  61.9843 331.7043 0031853   6.3932 353.7558 15.00468190 23792
ROBUSTA-3A
1 60243U 24128J   24350.22561739  .00013713  00000-0  10958-2 0  9991
2 60243  61.9909 333.5678 0029771   3.7754 356.3554 15.00174500 23726
CatSat
1 60246U 24125J   24350.83996167  .00017685  00000-0  69280-3 0  9990
2 60246  97.2771 200.0246 0048072   0.3458 359.7805 15.24751368 23158
CySat-1
1 61501U 98067WZ  24349.98493160  .00380227  00000-0  20461-2 0  9992
2 61501  51.6272 133.5361 0013561 294.7173  65.2416 15.78467549 10606
AO-123
1 61781U 24199AY  24350.76087386  .00013482  00000-0  55733-3 0  9991
2 61781  97.3793 214.9116 0019222  97.3167 263.0256 15.23930067 50067
